Volver al catálogo

FENGYUN 1C DEB

ActivoSSO
NORAD 30328·DEBRIS·🇨🇳 China

Lanzado May 10, 1999 desde Taiyuan Satellite Launch Center

Loading…

Próximos Pases (próximas 24 horas)

TLE

ActualizadoSource: Space-Track

Época: Sep 14, 2026, 11:46 UTC

1 30328U 99025AAP 26257.49075212  .00000116  00000-0  85904-4 0  9991
2 30328  98.6844 264.1963 0006538  96.0724  57.0192 14.12597813 11511

Sigue FENGYUN 1C DEB en tiempo real con AllMySat

Download on the App Store